Flag for Germany Weather past 2 weeks in Lampertheim, Hesse, Germany

Now
79 °F

Sunny.


Feels Like: 79 °F
Forecast: 55 / 80 °F
Wind: 2 mph from North

Location: Baden Wurttemberg - Neuostheim

Current Time: Jul 31, 2014 at 6:31:04 PM

Latest Report: Jul 31, 2014 at 5:50 PM


Visibility: 10 mi

Pressure: 29.95 "Hg

Humidity: 39%

Dew point: 52 °F

Location of LampertheimLocation

Historic Weather in Lampertheim — Graph

°F

Lampertheim temperature yesterday

Maximum temperature yesterday: 72 °F (at 11:20 AM)
Minimum temperature yesterday: 66 °F (at 5:20 AM)
Average temperature yesterday: 70 °F

Past Weeks' High & Low Weather Summary

 TemperatureHumidityPressure
High93 °F (Jul 18, 4:50 PM)100% (Jul 21, 5:50 AM)30.18 "Hg (Jul 21, 5:50 AM)
Low59 °F (Jul 17, 5:50 AM)20% (Jul 18, 5:50 PM)29.74 "Hg (Jul 29, 4:20 PM)
Average75 °F62%29.93 "Hg
* Reported Jul 16 5:20 PM — Jul 31 5:20 PM, Lampertheim, Weather by CustomWeather, © 2014

Note: Actual official high and low records may vary slightly from our data, if they occured in-between our weather recording intervals... More about our weather records

Advertising

Lampertheim weather history for previous 24 hours

 ConditionsComfort  
Time TempWeatherWind HumidityBarometerVisibility
5:20 PM
Jul 31
79 °FSunny.2 mph37%29.95 "Hg10 mi
4:50 PM77 °FSunny.2 mph42%29.95 "Hg10 mi
4:20 PM77 °FSunny.3 mph44%29.95 "Hg10 mi
3:50 PM77 °FPassing clouds.3 mph42%29.98 "HgN/A
3:20 PM77 °FScattered clouds.2 mph44%29.98 "HgN/A
2:50 PM75 °FPartly sunny.2 mph47%29.98 "HgN/A
2:20 PM75 °FScattered clouds.6 mph47%29.98 "HgN/A
1:50 PM75 °FScattered clouds.5 mph50%29.98 "HgN/A
1:20 PM75 °FSunny.2 mph50%30.01 "Hg10 mi
12:50 PM73 °FScattered clouds.5 mph50%30.01 "HgN/A
12:20 PM73 °FSunny.3 mph53%30.01 "Hg10 mi
11:50 AM73 °FSunny.2 mph53%30.01 "Hg10 mi
11:20 AM73 °FSunny.3 mph57%30.01 "Hg10 mi
10:50 AM72 °FPassing clouds.5 mph65%30.01 "HgN/A
10:20 AM70 °FSunny.3 mph64%30.01 "Hg10 mi
9:50 AM68 °FPassing clouds.5 mph73%30.01 "HgN/A
9:20 AM66 °FPassing clouds.5 mph78%30.01 "HgN/A
8:50 AM66 °FPassing clouds.8 mph73%30.01 "HgN/A
8:20 AM66 °FPassing clouds.6 mph78%30.01 "HgN/A
7:50 AM66 °FPassing clouds.6 mph78%30.01 "HgN/A
7:20 AM64 °FPassing clouds.5 mph83%30.01 "HgN/A
6:50 AM63 °FClear.3 mph88%30.01 "Hg10 mi
6:20 AM63 °FClear.3 mph88%29.98 "Hg10 mi
5:50 AM64 °FClear.3 mph83%29.98 "Hg10 mi
5:20 AM64 °FClear.3 mph83%29.98 "Hg10 mi
8:50 PM
Jul 30
72 °FPartly sunny.5 mph69%29.92 "HgN/A
8:20 PM72 °FPartly sunny.7 mph69%29.92 "HgN/A
7:50 PM72 °FBroken clouds.7 mph69%29.89 "HgN/A
7:20 PM72 °FOvercast.9 mph69%29.89 "HgN/A
6:50 PM72 °FOvercast.7 mph69%29.89 "HgN/A
6:20 PM72 °FPartly sunny.9 mph69%29.89 "HgN/A
Weather by CustomWeather, © 2014

See weather overviewHow to use our weather pages